Showing default

HAWK-2C, 47502

Orbit data source: Space-Track

HAWK-2C, 47502 is a payload satellite owned by HawkEye 360 (US) in SSO that was launched on Sun, 24 Jan 2021 UTC via an FALCON 9 launch vehicle from the Air Force Eastern Test Range (AFETR). Payload-class satellites include a variety of spacecraft equipped with specific instruments for various scientific and technological missions. These include communications satellites like Starlink; space stations such as the ISS; scientific satellites like the Hubble; Earth observation satellites from companies like Planet Labs, Umbra, and HawkEye 360; GPS; miniature CubeSats for education and research; and military/defense satellites.

Loading next visibility...
Identifier
47502, 2021-006CT
Orbit
SSO
Country
Flag of USUS
Related business
Manufacturer
UTIAS-SFL
Mission
Operational Commercial Sigint
Bus & Motor
DEFIANT, Unknown motor
Mass
31 kg wet, 30 kg dry
Launch date (UTC)
2021-01-24 (5 years ago)
Launch vehicle
FALCON 9
Launch site
Air Force Eastern Test Range (AFETR)
Object type
Payload
Rocket body
Debris
Shape & HBR
Box + 2 Pan, 1.0 m
Radar Cross Section
0.348 m², Medium (>0.1 m² and < 1m²)

Expand to show TLE details & history
Last TLE update: 2 days ago

TLE from 2 days ago
0 HAWK-2C
1 47502U 21006CT  25312.59111441  .00013281  00000-0  44702-3 0  9991
2 47502  97.2607 356.4188 0005611 271.8715  88.1884 15.30886166265701
Epoch: 2025-11-08T14:11Z
TLE epoch observation values (Epoch: 2025-11-08T14:11:12.285Z)
Latitude
0.00003°
Longitude
95.59908°
Altitude
476.157 km
Speed
7.628 km/s
True Right ascension
23h 45m 40s
True Declination
0° 00' 00"
Sunlit
Object was in full shadow at epoch
Visualization orbit readout
Latitude
Unknown
Longitude
Unknown
Altitude
Unknown
Speed
Unknown
Apparent Right ascension
Unknown
Apparent Declination
Unknown
Sunlit
N/A
Visualization observer readout
Local Sidereal Time
03:30:05
Azimuth
Unknown
Elevation
Unknown
Doppler factor
Unknown
Orbital elements
Apogee altitude
473.955 km
Perigee altitude
466.27 km
Semi-major axis
6,848.249 km
Eccentricity
0.00056
Inclination
97.2607°
RAAN
356.4188°
Arg. of periapsis
271.8715°
True anomaly
88.25267°
Mean anomaly
88.1884°
Eccentric anomaly
88.22053°
Mean motion
3.82978 °/min
Orbital period
94 mins
BSTAR
0.00044702
Loading maneuver chart data...
Computing Atmospheric mass density...

Documentation

Showing up to 5 results
|